Change the Weather History Date:

Monday, January 14, 2013

  Actual Average Record
Temperature  
Mean Temperature 62 °F -  
Max Temperature 78 °F 73 °F 80 °F (2007)
Min Temperature 46 °F 37 °F 32 °F (1999)
Degree Days  
Heating Degree Days 3    
Growing Degree Days 12 (Base 50)    
Moisture  
Dew Point 42 °F    
Average Humidity 58    
Maximum Humidity 93    
Minimum Humidity 18    
Precipitation  
Precipitation 0.00 in - - ()
Sea Level Pressure  
Sea Level Pressure 30.04 in    
Wind  
Wind Speed 2 mph ()    
Max Wind Speed 22 mph    
Max Gust Speed -    
Visibility 9.2 miles    
Events      
Averages and records for this station are not official NWS values.
T = Trace of Precipitation, MM = Missing Value Source: Averaged Metar Reports

Daily Weather History Graph

Daily Weather History Graph

Search for Another Location

Airport or City:

Trip Planner

Search our weather history database for the weather conditions in past years. The results will help you decide how hot, cold, wet, or windy it might be!

Date:

Astronomy

Jan. 14, 2013 Rise Set
Actual Time 7:31 AM CST 6:33 PM CST
Civil Twilight 7:08 AM CST 6:56 PM CST
Nautical Twilight 6:41 AM CST 7:24 PM CST
Astronomical Twilight 6:14 AM CST 7:50 PM CST
Moon 9:37 AM CST (1/14) 9:46 PM CST (1/14)
Length of Visible Light 11h 48m
Length of Day
11h 01m
Waxing Crescent, 11% of the Moon is Illuminated
Jan 14
Waxing Crescent
Jan 18
First Quarter
Jan 26
Full
Feb 3
Last Quarter
Feb 10
New

Hourly Weather History & Observations

Time (CST) Temp. Dew Point Humidity Pressure Visibility Wind Dir Wind Speed Gust Speed Precip Events Conditions
12:47 AM 53.6 °F 46.4 °F 77% 30.12 in 10.0 mi Calm Calm - N/A   Scattered Clouds
1:41 AM 50.0 °F 46.4 °F 87% 30.13 in 10.0 mi Calm Calm - N/A   Scattered Clouds
2:41 AM 50.0 °F 46.4 °F 87% 29.86 in 10.0 mi Calm Calm - N/A   Scattered Clouds
3:48 AM 48.2 °F 46.4 °F 93% 30.12 in 10.0 mi Calm Calm - N/A   Scattered Clouds
4:46 AM 48.2 °F 46.4 °F 93% 30.12 in 10.0 mi Calm Calm - N/A   Scattered Clouds
5:42 AM 48.2 °F 46.4 °F 93% 29.89 in 10.0 mi Calm Calm - N/A   Scattered Clouds
6:47 AM 46.4 °F 44.6 °F 93% 30.12 in 10.0 mi Calm Calm - N/A   Scattered Clouds
7:50 AM 48.2 °F 46.4 °F 93% 30.13 in 7.0 mi Calm Calm - N/A   Mostly Cloudy
8:49 AM 53.6 °F 48.2 °F 82% 29.96 in 7.0 mi Calm Calm - N/A   Mostly Cloudy
9:53 AM 60.8 °F 50.0 °F 68% 30.17 in 6.0 mi Calm Calm - N/A   Mostly Cloudy
10:51 AM 64.4 °F 39.2 °F 40% 30.18 in 6.0 mi NW 4.6 mph - N/A   Mostly Cloudy
11:52 AM 71.6 °F 41.0 °F 33% 29.89 in 8.0 mi NNW 3.5 mph - N/A   Mostly Cloudy
12:51 PM 73.4 °F 39.2 °F 29% 30.11 in 8.0 mi SSE 4.6 mph - N/A   Mostly Cloudy
1:47 PM 77.0 °F 32.0 °F 19% 30.07 in 10.0 mi SSE 3.5 mph - N/A   Mostly Cloudy
2:48 PM 78.8 °F 32.0 °F 18% 29.79 in 10.0 mi ENE 16.1 mph - N/A   Mostly Cloudy
3:49 PM 78.8 °F 32.0 °F 18% 30.05 in 10.0 mi South 21.9 mph - N/A   Mostly Cloudy
4:52 PM 77.0 °F 39.2 °F 26% 30.07 in 10.0 mi SSW 4.6 mph - N/A   Mostly Cloudy
5:53 PM 75.2 °F 39.2 °F 27% 29.85 in 10.0 mi SW 11.5 mph - N/A   Mostly Cloudy
6:51 PM 68.0 °F 39.2 °F 35% 30.11 in 10.0 mi SSW 8.1 mph - N/A   Mostly Cloudy
7:46 PM 66.2 °F 41.0 °F 40% 30.12 in 10.0 mi SW 5.8 mph - N/A   Scattered Clouds
8:44 PM 62.6 °F 42.8 °F 48% 29.95 in 10.0 mi East 4.6 mph - N/A   Scattered Clouds
9:50 PM 59.0 °F 44.6 °F 59% 30.14 in 10.0 mi South 4.6 mph - N/A   Scattered Clouds
10:54 PM 55.4 °F 44.6 °F 67% 30.15 in 10.0 mi Calm Calm - N/A   Scattered Clouds
11:55 PM 53.6 °F 44.6 °F 72% 29.90 in 10.0 mi SSW 3.5 mph - N/A   Scattered Clouds